Domov               UVHVVR             MKGP            O straneh              
ZDRAVSTVENO VARSTVO RASTLIN
  MREŽA AGROMET. POSTAJ
 ► PROGNOSTIČNA OBVESTILA
AGROMETEOROLOŠKI PODATKI -
ARSO
OBVLADOVANJE TVEGANJ ZARADI
NEUGODNIH VREMENSKIH RAZMER
  ► NARAVNE NESREČE
  ► SUŠA/MOČA
  ► NAMAKANJE
  ► ŽLED (gozdarstvo)
KARTOGRAFSKI PRIKAZI
SPLETNE POVEZAVE
PROJEKTI IN PUBLIKACIJE

AGROMETEOROLOŠKA MREŽA: VREMENSKE POSTAJE IN FENOLOŠKA OPAZOVANJA

Pregled podatkov za lokacijo Blanca, meteorološka postaja 27263

Pregled senzorjev na lokaciji

ID Ime Zadnja
vrednost
Datum
zadnje
spremembe
Tip
senzorja
2153 Relativna vlaga 2 m (% RH) 42,66 % RH 18.10.2017 18:03 Generic 0 - 100 %
2154 Omočenost lista (U) 0 U 18.10.2017 18:03 A730WET
2155 Padavine 0.2 mm (mm) 0 mm 18.10.2017 18:04 Generic
2158 Temperatura 2 m ( °C) 20,02 °C 18.10.2017 18:03 Generic -40 - +60 °C

Pregled podatkov zadnjih 24 ur

Zap.
št.
Datum in čas Blanca
Omočenost
lista
Padavine
0.2
mm
Relativna
vlaga
2
m
Temperatura
2
m
0 18.10.2017 17:00 0 0 43,02 20,43
1 18.10.2017 16:30 0 0 43,7 21,89
2 18.10.2017 16:00 0 0 41,49 22,81
3 18.10.2017 15:30 0 0 40,87 23,1
4 18.10.2017 15:00 0 0 39,89 23,05
5 18.10.2017 14:30 0 0 38,7 22,92
6 18.10.2017 14:00 0 0 39,32 22,74
7 18.10.2017 13:30 0 0 39,3 22,59
8 18.10.2017 13:00 0 0 40,08 22,23
9 18.10.2017 12:30 0 0 43,49 21,55
10 18.10.2017 12:00 0 0 56,25 20,15
11 18.10.2017 11:30 0 0 66,41 18,65
12 18.10.2017 11:00 0 0 71,98 17,4
13 18.10.2017 10:30 0 0 83,47 15,54
14 18.10.2017 10:00 0 0 94,06 13,82
15 18.10.2017 09:30 0,8 0 95,45 12,19
16 18.10.2017 09:00 3,57 0 95,51 10,99
17 18.10.2017 08:30 5,3 0 95,54 10,31
18 18.10.2017 08:00 10 0 95,55 9,9
19 18.10.2017 07:30 9,87 0 95,54 9,94
20 18.10.2017 07:00 9 0 95,53 9,96
21 18.10.2017 06:30 9 0 95,5 10,03
22 18.10.2017 06:00 9 0,2 95,5 10,3
23 18.10.2017 05:30 9 0 95,5 10,42
24 18.10.2017 05:00 9,43 0 95,48 10,5
25 18.10.2017 04:30 10 0 95,48 10,47
26 18.10.2017 04:00 9 0 95,39 10,48
27 18.10.2017 03:30 9 0 95,37 10,28
28 18.10.2017 03:00 9,07 0 95,25 10,52
29 18.10.2017 02:30 9 0 95,24 10,76
30 18.10.2017 02:00 9,73 0 95,22 10,92
31 18.10.2017 01:30 10 0 95,15 10,9
32 18.10.2017 01:00 10 0 95,15 10,91
33 18.10.2017 00:30 10 0 95,09 11,04
34 18.10.2017 00:00 10 0 95,05 11,15
35 17.10.2017 23:30 10 0 94,99 11,32
36 17.10.2017 23:00 10 0 94,77 11,41
37 17.10.2017 22:30 10 0 94,6 11,84
38 17.10.2017 22:00 10 0 94,54 12,21
39 17.10.2017 21:30 10 0 94,31 12,6
40 17.10.2017 21:00 10 0 94,03 12,66
41 17.10.2017 20:30 10 0 93,97 13,37
42 17.10.2017 20:00 10 0 93,48 13,76
43 17.10.2017 19:30 7,73 0 93,02 14,25
44 17.10.2017 19:00 2,87 0 92,15 14,38
© 2011 Ministrstvo za kmetijstvo, gozdarstvo in prehrano. Vse pravice pridržane.